{"data":{"norad_id":38044,"epoch":"2026-09-20T04:02:23.846784Z","epoch_age_seconds":43331,"freshness":"FRESH","line1":"1 38044U 11080E   26263.16833156 -.00000111  00000+0 -38581-4 0  9994","line2":"2 38044  52.0135  39.3713 0000801 121.4887  49.6077 12.62268109681705","mean_motion":12.62268109,"eccentricity":8.01e-5,"inclination_deg":52.0135,"raan_deg":39.3713,"arg_perigee_deg":121.4887,"mean_anomaly_deg":49.6077,"bstar":-3.8581e-5,"rev_number":68170,"period_min":114.08035976927,"perigee_km":1412.9725858224,"apogee_km":1414.2208215618,"semimajor_km":7791.7337036921,"source":"CELESTRAK","updated_at":"2026-09-20T09:00:45.040368Z"}}